Weather History for KHOP - October, 2013

Change the Weather History Date:

Monday, October 28, 2013

  Actual Average Record
Temperature  
Mean Temperature 58 °F -  
Max Temperature 66 °F 66 °F 80 °F (1999)
Min Temperature 50 °F 45 °F 26 °F (2001)
Degree Days  
Heating Degree Days 7    
Growing Degree Days 8 (Base 50)    
Moisture  
Dew Point 56 °F    
Average Humidity 98    
Maximum Humidity 100    
Minimum Humidity 64    
Precipitation  
Precipitation 0.06 in - - ()
Sea Level Pressure  
Sea Level Pressure 30.16 in    
Wind  
Wind Speed 3 mph (East)    
Max Wind Speed 7 mph    
Max Gust Speed -    
Visibility 5 miles    
Events Fog    
Averages and records for this station are not official NWS values.
T = Trace of Precipitation, MM = Missing Value Source: NWS Daily Summary

Daily Weather History Graph

Daily Weather History Graph

Search for Another Location

Airport or City:

Trip Planner

Search our weather history database for the weather conditions in past years. The results will help you decide how hot, cold, wet, or windy it might be!

Date:

Astronomy

Oct. 28, 2013 Rise Set
Actual Time 7:09 AM CDT 5:57 PM CDT
Civil Twilight 6:43 AM CDT 6:23 PM CDT
Nautical Twilight 6:12 AM CDT 6:54 PM CDT
Astronomical Twilight 5:42 AM CDT 7:24 PM CDT
Moon 1:11 AM CDT 2:30 PM CDT
Length of Visible Light 11h 40m
Length of Day
10h 47m
Waning Crescent, 34% of the Moon is Illuminated
Oct 28
Waning Crescent
Nov 3
New
Nov 9
First Quarter
Nov 17
Full
Nov 25
Last Quarter

Hourly Weather History & Observations

Time (CDT) Temp. Dew Point Humidity Pressure Visibility Wind Dir Wind Speed Gust Speed Precip Events Conditions
12:38 AM 55.4 °F 55.4 °F 100% 30.08 in 10.0 mi SE 4.6 mph - N/A   Overcast
12:47 AM 55.4 °F 55.4 °F 100% 30.07 in 10.0 mi ESE 4.6 mph - N/A   Overcast
12:53 AM 55.4 °F 55.4 °F 100% 30.07 in 10.0 mi ESE 4.6 mph - N/A   Overcast
12:56 AM 55.4 °F 55.4 °F 100% 30.07 in 9.0 mi ESE 4.6 mph - N/A   Overcast
12:58 AM 55.9 °F 55.9 °F 100% 30.08 in 9.0 mi SE 4.6 mph - N/A   Overcast
12:59 AM 55.4 °F 55.4 °F 100% 30.08 in 8.0 mi SE 4.6 mph - N/A   Light Drizzle
1:06 AM 55.4 °F 55.4 °F 100% 30.07 in 5.0 mi East 2.3 mph - N/A   Light Drizzle
1:17 AM 55.4 °F 55.4 °F 100% 30.08 in 5.0 mi East 2.3 mph - N/A   Light Drizzle
1:21 AM 55.4 °F 55.4 °F 100% 30.08 in 9.0 mi East 2.3 mph - N/A   Overcast
1:22 AM 55.4 °F 55.4 °F 100% 30.08 in 10.0 mi East 2.3 mph - N/A   Overcast
1:23 AM 55.4 °F 55.4 °F 100% 30.08 in 10.0 mi East 2.3 mph - N/A   Overcast
1:26 AM 55.4 °F 55.4 °F 100% 30.08 in 10.0 mi East 3.5 mph - N/A   Overcast
1:32 AM 55.4 °F 55.4 °F 100% 30.08 in 10.0 mi ESE 3.5 mph - N/A   Overcast
1:36 AM 55.4 °F 55.4 °F 100% 30.08 in 10.0 mi ESE 2.3 mph - N/A   Overcast
1:58 AM 55.6 °F 55.6 °F 100% 30.08 in 7.0 mi SE 3.5 mph - 0.01 in   Overcast
1:59 AM 55.4 °F 55.4 °F 100% 30.08 in 6.0 mi ESE 3.5 mph - N/A   Overcast
2:27 AM 55.4 °F 55.4 °F 100% 30.08 in 5.0 mi Calm Calm - N/A   Overcast
2:57 AM 55.4 °F 55.4 °F 100% 30.08 in 7.0 mi ENE 2.3 mph - N/A   Overcast
3:20 AM 55.4 °F 55.4 °F 100% 30.08 in 5.0 mi East 2.3 mph - N/A   Overcast
3:21 AM 55.4 °F 55.4 °F 100% 30.08 in 5.0 mi East 2.3 mph - N/A   Overcast
3:23 AM 55.4 °F 55.4 °F 100% 30.08 in 4.0 mi East 2.3 mph - N/A   Overcast
3:29 AM 55.4 °F 55.4 °F 100% 30.08 in 3.0 mi ESE 1.2 mph - N/A   Overcast
3:30 AM 55.4 °F 55.4 °F 100% 30.08 in 2.5 mi ESE 2.3 mph - N/A   Overcast
3:52 AM 55.4 °F 55.4 °F 100% 30.08 in 1.8 mi East 2.3 mph - N/A   Overcast
3:58 AM 55.8 °F 55.8 °F 100% 30.08 in 1.5 mi ESE 2.3 mph - N/A   Overcast
4:00 AM 55.4 °F 55.4 °F 100% 30.08 in 1.2 mi ESE 2.3 mph - N/A   Overcast
4:01 AM 55.4 °F 55.4 °F 100% 30.08 in 1.2 mi East 2.3 mph - N/A   Light Drizzle
4:13 AM 55.4 °F 55.4 °F 100% 30.09 in 1.5 mi East 1.2 mph - N/A   Light Drizzle
4:16 AM 55.4 °F 55.4 °F 100% 30.09 in 1.5 mi East 1.2 mph - N/A   Drizzle
4:18 AM 55.4 °F 55.4 °F 100% 30.09 in 1.5 mi ESE 1.2 mph - N/A   Drizzle
4:29 AM 55.4 °F 55.4 °F 100% 30.09 in 1.5 mi ESE 2.3 mph - N/A   Light Drizzle
4:32 AM 55.4 °F 55.4 °F 100% 30.09 in 1.8 mi ESE 2.3 mph - N/A   Light Drizzle
4:33 AM 55.4 °F 55.4 °F 100% 30.09 in 1.8 mi SE 3.5 mph - N/A   Light Drizzle
4:35 AM 55.4 °F 55.4 °F 100% 30.09 in 2.0 mi SE 3.5 mph - N/A   Light Drizzle
4:38 AM 55.4 °F 55.4 °F 100% 30.09 in 2.0 mi SE 3.5 mph - N/A   Light Drizzle
4:39 AM 55.4 °F 55.4 °F 100% 30.09 in 2.5 mi SE 4.6 mph - N/A   Overcast
4:42 AM 55.4 °F 55.4 °F 100% 30.09 in 2.5 mi SE 4.6 mph - N/A   Light Drizzle
4:51 AM 57.2 °F 57.2 °F 100% 30.09 in 3.0 mi SE 3.5 mph - N/A   Light Drizzle
4:53 AM 57.2 °F 57.2 °F 100% 30.09 in 3.0 mi SE 3.5 mph - N/A   Overcast
4:57 AM 57.2 °F 57.2 °F 100% 30.09 in 3.0 mi SE 3.5 mph - N/A   Overcast
4:58 AM 56.5 °F 56.5 °F 100% 30.09 in 3.0 mi SE 3.5 mph - 0.03 in   Overcast
5:02 AM 57.2 °F 57.2 °F 100% 30.09 in 4.0 mi SE 2.3 mph - N/A   Overcast
5:05 AM 57.2 °F 57.2 °F 100% 30.10 in 4.0 mi SE 2.3 mph - N/A   Overcast
5:10 AM 57.2 °F 57.2 °F 100% 30.10 in 4.0 mi SE 2.3 mph - N/A   Overcast
5:20 AM 57.2 °F 57.2 °F 100% 30.10 in 5.0 mi SE 1.2 mph - N/A   Overcast
5:22 AM 57.2 °F 57.2 °F 100% 30.10 in 5.0 mi SE 1.2 mph - N/A   Overcast
5:30 AM 57.2 °F 57.2 °F 100% 30.10 in 5.0 mi East 1.2 mph - N/A   Overcast
5:31 AM 57.2 °F 57.2 °F 100% 30.10 in 5.0 mi East 2.3 mph - N/A   Overcast
5:36 AM 57.2 °F 57.2 °F 100% 30.10 in 5.0 mi East 2.3 mph - N/A   Overcast
5:55 AM 55.4 °F 55.4 °F 100% 30.11 in 4.0 mi ESE 1.2 mph - N/A   Overcast
5:58 AM 56.3 °F 56.3 °F 100% 30.12 in 4.0 mi East 1.2 mph - N/A   Overcast
6:11 AM 57.2 °F 57.2 °F 100% 30.11 in 5.0 mi SE 2.3 mph - N/A   Overcast
6:23 AM 57.2 °F 57.2 °F 100% 30.12 in 4.0 mi Calm Calm - N/A   Overcast
6:30 AM 57.2 °F 57.2 °F 100% 30.12 in 5.0 mi SSW 2.3 mph - N/A   Overcast
6:39 AM 57.2 °F 57.2 °F 100% 30.12 in 6.0 mi NW 2.3 mph - N/A   Overcast
6:40 AM 57.2 °F 57.2 °F 100% 30.13 in 6.0 mi NW 2.3 mph - N/A   Overcast
6:42 AM 57.2 °F 57.2 °F 100% 30.13 in 5.0 mi NW 1.2 mph - N/A   Light Drizzle
6:58 AM 56.7 °F 56.7 °F 100% 30.13 in 4.0 mi Calm Calm - 0.00 in   Drizzle
7:03 AM 57.2 °F 57.2 °F 100% 30.14 in 3.0 mi WNW 2.3 mph - N/A   Light Drizzle
7:04 AM 57.2 °F 57.2 °F 100% 30.14 in 2.5 mi NW 2.3 mph - N/A   Light Drizzle
7:12 AM 57.2 °F 57.2 °F 100% 30.14 in 2.5 mi WSW 2.3 mph - N/A   Light Drizzle
7:14 AM 57.2 °F 57.2 °F 100% 30.14 in 2.5 mi SW 2.3 mph - N/A   Light Drizzle
7:16 AM 57.2 °F 57.2 °F 100% 30.14 in 2.0 mi WSW 2.3 mph - N/A   Light Drizzle
7:31 AM 57.2 °F 57.2 °F 100% 30.15 in 3.0 mi WNW 2.3 mph - N/A   Light Drizzle
7:32 AM 57.2 °F 57.2 °F 100% 30.15 in 3.0 mi NW 2.3 mph - N/A   Light Drizzle
7:46 AM 57.2 °F 57.2 °F 100% 30.15 in 2.5 mi NNW 2.3 mph - N/A   Drizzle
7:55 AM 57.2 °F 57.2 °F 100% 30.16 in 3.0 mi NW 4.6 mph - N/A   Drizzle
7:58 AM 56.8 °F 56.8 °F 100% 30.17 in 3.0 mi NW 3.5 mph - 0.01 in   Light Drizzle
8:07 AM 57.2 °F 57.2 °F 100% 30.16 in 4.0 mi WNW 3.5 mph - N/A   Overcast
8:10 AM 57.2 °F 57.2 °F 100% 30.16 in 4.0 mi WNW 2.3 mph - N/A   Overcast
8:16 AM 57.2 °F 57.2 °F 100% 30.16 in 4.0 mi North 1.2 mph - N/A   Overcast
8:20 AM 57.2 °F 57.2 °F 100% 30.16 in 4.0 mi NE 1.2 mph - N/A   Overcast
8:28 AM 57.2 °F 57.2 °F 100% 30.17 in 4.0 mi Calm Calm - N/A   Overcast
8:33 AM 57.2 °F 57.2 °F 100% 30.17 in 4.0 mi Calm Calm - N/A   Overcast
8:38 AM 57.2 °F 57.2 °F 100% 30.17 in 5.0 mi Calm Calm - N/A   Mostly Cloudy
8:40 AM 57.2 °F 57.2 °F 100% 30.17 in 5.0 mi Calm Calm - N/A   Overcast
8:42 AM 57.2 °F 57.2 °F 100% 30.17 in 5.0 mi Calm Calm - N/A   Overcast
8:47 AM 57.2 °F 57.2 °F 100% 30.18 in 6.0 mi WNW 2.3 mph - N/A   Overcast
8:58 AM 57.9 °F 57.9 °F 100% 30.19 in 9.0 mi West 3.5 mph - 0.00 in   Overcast
9:22 AM 57.2 °F 57.2 °F 100% 30.19 in 9.0 mi NW 3.5 mph - N/A   Overcast
9:49 AM 59.0 °F 59.0 °F 100% 30.20 in 9.0 mi WNW 5.8 mph - N/A   Overcast
9:58 AM 58.5 °F 58.5 °F 100% 30.22 in 10.0 mi WNW 4.6 mph - 0.01 in   Overcast
10:46 AM 59.0 °F 59.0 °F 100% 30.21 in 10.0 mi NNW 2.3 mph - N/A   Overcast
10:58 AM 59.4 °F 59.4 °F 100% 30.22 in 10.0 mi NW 4.6 mph - N/A   Overcast
11:02 AM 59.0 °F 59.0 °F 100% 30.21 in 10.0 mi WNW 3.5 mph - N/A   Overcast
11:19 AM 60.8 °F 60.8 °F 100% 30.21 in 10.0 mi NW 5.8 mph - N/A   Mostly Cloudy
11:30 AM 60.8 °F 60.8 °F 100% 30.21 in 10.0 mi NW 5.8 mph - N/A   Mostly Cloudy
11:52 AM 60.8 °F 60.8 °F 100% 30.21 in 10.0 mi North 4.6 mph - N/A   Mostly Cloudy
11:55 AM 60.8 °F 60.8 °F 100% 30.21 in 10.0 mi North 5.8 mph - N/A   Mostly Cloudy
11:58 AM 61.2 °F 61.2 °F 100% 30.22 in 10.0 mi Variable 4.6 mph - N/A   Mostly Cloudy
12:04 PM 60.8 °F 60.8 °F 100% 30.21 in 10.0 mi NW 3.5 mph - N/A   Mostly Cloudy
12:25 PM 62.6 °F 60.8 °F 94% 30.20 in 10.0 mi Variable 2.3 mph - N/A   Mostly Cloudy
12:39 PM 62.6 °F 60.8 °F 94% 30.20 in 10.0 mi NE 4.6 mph - N/A   Scattered Clouds
12:58 PM 64.8 °F 60.3 °F 85% 30.19 in 10.0 mi North 6.9 mph - N/A   Scattered Clouds
1:01 PM 64.4 °F 59.0 °F 83% 30.19 in 10.0 mi North 6.9 mph - N/A   Mostly Cloudy
1:08 PM 62.6 °F 59.0 °F 88% 30.19 in 10.0 mi NE 5.8 mph - N/A   Scattered Clouds
1:58 PM 64.8 °F 56.3 °F 74% 30.18 in 9.0 mi NE 4.6 mph - N/A   Partly Cloudy
2:58 PM 65.1 °F 54.5 °F 68% 30.18 in 10.0 mi Variable 2.3 mph - N/A   Overcast
3:12 PM 66.2 °F 53.6 °F 64% 30.18 in 10.0 mi Calm Calm - N/A   Light Drizzle
3:20 PM 66.2 °F 55.4 °F 68% 30.18 in 10.0 mi East 3.5 mph - N/A   Mostly Cloudy
3:58 PM 66.2 °F 54.3 °F 65% 30.19 in 10.0 mi ENE 2.3 mph - 0.00 in   Clear
4:58 PM 64.8 °F 54.9 °F 70% 30.20 in 10.0 mi SSE 3.5 mph - N/A   Clear
5:58 PM 61.7 °F 56.7 °F 84% 30.20 in 10.0 mi ESE 4.6 mph - N/A   Partly Cloudy
6:58 PM 58.5 °F 57.6 °F 97% 30.22 in 10.0 mi East 3.5 mph - N/A   Clear
7:26 PM 57.2 °F 57.2 °F 100% 30.22 in 9.0 mi ESE 3.5 mph - N/A   Clear
7:58 PM 57.4 °F 57.4 °F 100% 30.24 in 8.0 mi SE 3.5 mph - N/A   Clear
8:21 PM 57.2 °F 57.2 °F 100% 30.24 in 5.0 mi SE 3.5 mph - N/A   Clear
8:27 PM 57.2 °F 57.2 °F 100% 30.24 in 5.0 mi SE 2.3 mph - N/A   Clear
8:58 PM 56.1 °F 56.1 °F 100% 30.26 in 7.0 mi SW 1.2 mph - N/A   Mostly Cloudy
9:15 PM 55.4 °F 55.4 °F 100% 30.25 in 10.0 mi Calm Calm - N/A   Mostly Cloudy
9:37 PM 55.4 °F 55.4 °F 100% 30.25 in 9.0 mi ESE 2.3 mph - N/A   Scattered Clouds
9:58 PM 54.0 °F 54.0 °F 100% 30.26 in 6.0 mi East 1.2 mph - N/A   Clear
10:23 PM 53.6 °F 53.6 °F 100% 30.25 in 5.0 mi ESE 2.3 mph - N/A   Clear
10:36 PM 51.8 °F 51.8 °F 100% 30.25 in 2.5 mi Calm Calm - N/A   Clear
10:38 PM 51.8 °F 51.8 °F 100% 30.25 in 1.8 mi NNW 1.2 mph - N/A   Clear
10:45 PM 53.6 °F 53.6 °F 100% 30.26 in 2.0 mi Calm Calm - N/A   Clear
10:47 PM 53.6 °F 53.6 °F 100% 30.25 in 3.0 mi Calm Calm - N/A   Clear
10:53 PM 53.6 °F 53.6 °F 100% 30.25 in 5.0 mi East 2.3 mph - N/A   Clear
10:58 PM 53.2 °F 53.2 °F 100% 30.27 in 5.0 mi East 3.5 mph - N/A   Clear
11:00 PM 51.8 °F 51.8 °F 100% 30.25 in 5.0 mi East 3.5 mph - N/A   Clear
11:03 PM 51.8 °F 51.8 °F 100% 30.25 in 2.0 mi ENE 2.3 mph - N/A   Partly Cloudy
11:04 PM 51.8 °F 51.8 °F 100% 30.25 in 1.5 mi ENE 2.3 mph - N/A   Partly Cloudy
11:05 PM 50.0 °F 50.0 °F 100% 30.25 in 1.0 mi ENE 2.3 mph - N/A   Partly Cloudy
11:06 PM 50.0 °F 50.0 °F 100% 30.25 in 0.8 mi NE 1.2 mph - N/A   Partly Cloudy
11:07 PM 50.0 °F 50.0 °F 100% 30.25 in 0.5 mi NNE 1.2 mph - N/A Fog Fog
11:08 PM 50.0 °F 50.0 °F 100% 30.25 in 0.5 mi Calm Calm - N/A Fog Fog
11:10 PM 50.0 °F 50.0 °F 100% 30.26 in 0.2 mi NNE 1.2 mph - N/A Fog Fog
11:17 PM 51.8 °F 51.8 °F 100% 30.25 in 0.5 mi East 2.3 mph - N/A Fog Fog
11:23 PM 51.8 °F 51.8 °F 100% 30.25 in 0.8 mi East 3.5 mph - N/A   Scattered Clouds
11:25 PM 51.8 °F 51.8 °F 100% 30.25 in 0.8 mi East 3.5 mph - N/A   Scattered Clouds
11:26 PM 51.8 °F 51.8 °F 100% 30.25 in 1.0 mi East 3.5 mph - N/A   Scattered Clouds
11:28 PM 50.0 °F 50.0 °F 100% 30.25 in 1.2 mi East 2.3 mph - N/A   Mostly Cloudy
11:29 PM 50.0 °F 50.0 °F 100% 30.25 in 1.8 mi East 2.3 mph - N/A   Mostly Cloudy
11:30 PM 50.0 °F 50.0 °F 100% 30.25 in 2.5 mi East 2.3 mph - N/A   Mostly Cloudy
11:31 PM 50.0 °F 50.0 °F 100% 30.25 in 3.0 mi East 2.3 mph - N/A   Mostly Cloudy
11:44 PM 50.0 °F 50.0 °F 100% 30.26 in 2.5 mi ESE 1.2 mph - N/A   Scattered Clouds
11:58 PM 51.6 °F 51.6 °F 100% 30.27 in 2.5 mi NE 1.2 mph - N/A   Partly Cloudy